Location: Unnamed
(51.5169°N, 0.1311°W)
Time: 19:28:49
(UTC+01:00)

Tiros 1 - Pass Details

Date: 08 August 2024
Orbit: 623 x 655 km, 48.4° (Epoch: 16 September)

Event Time Altitude Azimuth Distance (km) Brightness Sun altitude
Rises 13:49:48 0° 274° (W) 2,966 10.7 53.3°
Drops below altitude 10° 13:54:35 10° 231° (SW) 2,051 10.4 53.1°
Maximum altitude 13:55:03 10° 225° (SW) 2,040 10.4 53.1°
Sets 14:00:16 0° 176° (S) 2,927 11.0 52.8°
